TOA5,AWS2,CR1000X,13008,CR1000X.Std.04.01,CPU:Sun_V120.CR1X,45674,TBL110_SonicWind,
2019/1/1 0:00,81326,0.887,175.2,11,,,,
2019/1/1 0:10,81327,0.856,184.2,11,,,,
2019/1/1 0:20,81328,0.915,185.9,21,,,,
2019/1/1 0:30,81329,1.235,162.3,11,,,,
2019/1/1 0:40,81330,1.125,172,1,,,,
2019/1/1 0:50,81331,1.1,243.2,1,,,,
2019/1/1 1:00,81332,1.024,275.5,21,,,,
2019/1/1 1:10,81333,1.311,301.1,21,,,,
2019/1/1 1:20,81334,1.906,324,21,,,,
2019/1/1 1:30,81335,1.663,298.6,21,,,,
2019/1/1 1:40,81336,1.878,309.6,1,,,,
2019/1/1 1:50,81337,1.132,263.7,21,,,,
2019/1/1 2:00,81338,0.905,172.2,1,,,,
2019/1/1 2:10,81339,0.898,174.2,11,,,,
2019/1/1 2:20,81340,1.09,190.7,21,,,,
2019/1/1 2:30,81341,2.324,149.1,21,,,,
2019/1/1 2:40,81342,3.259,133.9,21,,,,
2019/1/1 2:50,81343,4.267,128.7,21,,,,
2019/1/1 3:00,81344,2.901,134.3,11,,,,
2019/1/1 3:10,81345,1.704,165.3,11,,,,
2019/1/1 3:20,81346,1.226,172.2,21,,,,
2019/1/1 3:30,81347,1.269,201.1,1,,,,
2019/1/1 3:40,81348,0.944,214.9,21,,,,
2019/1/1 3:50,81349,0.82,206.9,11,,,,
2019/1/1 4:00,81350,0.87,143,11,,,,
2019/1/1 4:10,81351,0.937,173,1,,,,
2019/1/1 4:20,81352,1.131,282.3,11,,,,
2019/1/1 4:30,81353,0.64,217.8,21,,,,
2019/1/1 4:40,81354,1.726,159.6,21,,,,
2019/1/1 4:50,81355,1.862,172.4,1,,,,
2019/1/1 5:00,81356,1.024,231,11,,,,
2019/1/1 5:10,81357,1.019,261,21,,,,
2019/1/1 5:20,81358,0.653,234,20,,,,
2019/1/1 5:30,81359,1.234,297.8,21,,,,
2019/1/1 5:40,81360,1.517,319.7,21,,,,
2019/1/1 5:50,81361,0.974,149.2,21,,,,
2019/1/1 6:00,81362,0.976,193.9,1,,,,
2019/1/1 6:10,81363,1.411,167.5,11,,,,
2019/1/1 6:20,81364,2.184,157.7,21,,,,
2019/1/1 6:30,81365,2.404,144.8,21,,,,
2019/1/1 6:40,81366,4.427,119.9,21,,,,
2019/1/1 6:50,81367,2.923,124.6,21,,,,
2019/1/1 7:00,81368,2.348,127,21,,,,
2019/1/1 7:10,81369,1.672,146.3,11,,,,
2019/1/1 7:20,81370,1.355,141.4,21,,,,
2019/1/1 7:30,81371,0.915,135.2,21,,,,
2019/1/1 7:40,81372,1.333,144.9,11,,,,
2019/1/1 7:50,81373,1.181,150.6,11,,,,
2019/1/1 8:00,81374,1.178,176.1,1,,,,
2019/1/1 8:10,81375,1.268,155.2,11,,,,
2019/1/1 8:20,81376,1.643,160.1,1,,,,
2019/1/1 8:30,81377,0.819,205.6,1,,,,
2019/1/1 8:40,81378,0.792,148.8,11,,,,
2019/1/1 8:50,81379,1.414,156.4,20,,,,
2019/1/1 9:00,81380,3.667,2.626,11,,,,
2019/1/1 9:10,81381,1.132,331,21,,,,
2019/1/1 9:20,81382,0.499,217.3,21,,,,
2019/1/1 9:30,81383,0.949,142.7,21,,,,
2019/1/1 9:40,81384,1.147,155.7,10,,,,
2019/1/1 9:50,81385,0.806,152.3,0,,,,
2019/1/1 10:00,81386,0.557,132.3,20,,,,
2019/1/1 10:10,81387,1.286,137.3,20,,,,
2019/1/1 10:20,81388,1.106,128.1,20,,,,
2019/1/1 10:30,81389,1.937,344.6,21,51736,1.007,149.1,1
2019/1/1 10:40,81390,1.09,319,21,,,,
2019/1/1 10:50,81391,0.729,115.5,21,,,,
2019/1/1 11:00,81392,1.864,3.049,1,,,,
2019/1/1 11:10,81393,0.896,238.2,11,,,,
2019/1/1 11:20,81394,1.326,154.7,21,,,,
2019/1/1 11:30,81395,1.712,140.9,11,,,,
2019/1/1 11:40,81396,1.362,146.3,1,,,,
2019/1/1 11:50,81397,0.737,158.9,10,,,,
2019/1/1 12:00,81398,0.54,133.1,20,,,,
2019/1/1 12:10,81399,0.701,351.8,20,,,,
2019/1/1 12:20,81400,0.971,125.1,20,,,,
2019/1/1 12:30,81401,1.536,134.1,21,,,,
2019/1/1 12:40,81402,1.169,144.8,21,,,,
2019/1/1 12:50,81403,0.977,137.8,10,,,,
2019/1/1 13:00,81404,1.702,136.8,1,,,,
2019/1/1 13:10,81405,0.846,184.4,21,,,,
2019/1/1 13:20,81406,1.059,155,20,,,,
2019/1/1 13:30,81407,0.84,341.8,0,,,,
2019/1/1 13:40,81408,0.596,317.9,20,,,,
2019/1/1 13:50,81409,0.625,248.2,20,,,,
2019/1/1 14:00,81410,1.474,139.7,21,,,,
2019/1/1 14:10,81411,1.787,141.7,21,,,,
2019/1/1 14:20,81412,1.608,154.2,11,,,,
2019/1/1 14:30,81413,0.988,149.1,21,,,,
2019/1/1 14:40,81414,1.834,9.33,11,,,,
2019/1/1 14:50,81415,2.922,351.7,0,,,,
2019/1/1 15:00,81416,0.588,226.3,10,,,,
2019/1/1 15:10,81417,0.479,217.8,20,,,,
2019/1/1 15:20,81418,0.542,179.8,10,,,,
2019/1/1 15:30,81419,0.943,148.8,0,,,,
2019/1/1 15:40,81420,0.475,144,20,,,,
2019/1/1 15:50,81421,0.306,170.4,20,,,,
2019/1/1 16:00,81422,0.452,145.2,10,,,,
2019/1/1 16:10,81423,0.414,67.5,10,,,,
2019/1/1 16:20,81424,0.349,121.6,0,,,,
2019/1/1 16:30,81425,0.588,81.6,10,,,,
2019/1/1 16:40,81426,1.118,114.7,10,,,,
2019/1/1 16:50,81427,1.617,37.06,21,,,,
2019/1/1 17:00,81428,0.577,134.4,20,,,,
2019/1/1 17:10,81429,0.639,97,10,,,,
2019/1/1 17:20,81430,0.561,100.6,0,,,,
2019/1/1 17:30,81431,1.261,69.53,11,,,,
2019/1/1 17:40,81432,0.938,116.9,11,,,,
2019/1/1 17:50,81433,0.955,82.2,1,,,,
2019/1/1 18:00,81434,1.055,85.4,11,,,,
2019/1/1 18:10,81435,1.149,101.8,11,,,,
2019/1/1 18:20,81436,1.123,103.2,1,,,,
2019/1/1 18:30,81437,0.995,164.5,21,,,,
2019/1/1 18:40,81438,1.25,135.7,21,,,,
2019/1/1 18:50,81439,1.493,143.8,11,,,,
2019/1/1 19:00,81440,1.39,154.5,21,,,,
2019/1/1 19:10,81441,1.252,150,11,,,,
2019/1/1 19:20,81442,1.21,163.5,11,,,,
2019/1/1 19:30,81443,1.602,161.5,11,,,,
2019/1/1 19:40,81444,1.551,146,11,,,,
2019/1/1 19:50,81445,1.626,142.5,21,,,,
2019/1/1 20:00,81446,1.577,147.7,11,,,,
2019/1/1 20:10,81447,1.342,154.2,11,,,,
2019/1/1 20:20,81448,1.243,168,21,,,,
2019/1/1 20:30,81449,0.994,159.4,11,,,,
2019/1/1 20:40,81450,0.971,157,21,,,,
2019/1/1 20:50,81451,0.585,131,20,,,,
2019/1/1 21:00,81452,1.06,87.8,1,,,,
2019/1/1 21:10,81453,0.818,77.95,1,,,,
2019/1/1 21:20,81454,0.742,93.1,1,,,,
2019/1/1 21:30,81455,0.765,168,20,,,,
2019/1/1 21:40,81456,0.658,113.9,21,,,,
2019/1/1 21:50,81457,0.651,140.8,11,,,,
2019/1/1 22:00,81458,0.674,9.34,10,,,,
2019/1/1 22:10,81459,0.658,139,11,,,,
2019/1/1 22:20,81460,0.943,146.1,1,,,,
2019/1/1 22:30,81461,0.632,84.1,20,,,,
2019/1/1 22:40,81462,0.689,135.2,21,,,,
2019/1/1 22:50,81463,0.663,160.3,21,,,,
2019/1/1 23:00,81464,0.717,128.9,11,,,,
2019/1/1 23:10,81465,0.602,197.6,1,,,,
2019/1/1 23:20,81466,0.849,243.4,1,,,,
2019/1/1 23:30,81467,0.878,282.8,1,,,,
2019/1/1 23:40,81468,0.899,160.5,11,,,,
2019/1/1 23:50,81469,1.003,190.7,1,,,,
2019/1/2 0:00,81470,0.822,139.7,11,,,,
2019/1/2 0:10,81471,0.974,120.2,0,,,,
2019/1/2 0:20,81472,0.841,164.3,21,,,,
2019/1/2 0:30,81473,0.876,125.9,11,,,,
2019/1/2 0:40,81474,0.98,71.45,11,,,,
2019/1/2 0:50,81475,0.858,205.3,20,,,,
2019/1/2 1:00,81476,0.521,133.9,21,,,,
2019/1/2 1:10,81477,0.397,149.5,20,,,,
2019/1/2 1:20,81478,0.843,155.7,1,,,,
2019/1/2 1:30,81479,0.505,131.8,20,,,,
2019/1/2 1:40,81480,0.69,102.6,10,,,,
2019/1/2 1:50,81481,0.458,154.7,10,,,,
2019/1/2 2:00,81482,0.533,239.9,0,,,,
2019/1/2 2:10,81483,0.678,268.3,1,,,,
2019/1/2 2:20,81484,0.496,176.5,21,,,,
2019/1/2 2:30,81485,0.509,127.8,11,,,,
2019/1/2 2:40,81486,0.419,250,10,,,,
2019/1/2 2:50,81487,0.321,167.6,20,,,,
2019/1/2 3:00,81488,0.451,146.5,20,,,,
2019/1/2 3:10,81489,0.536,7.818,11,,,,
2019/1/2 3:20,81490,0.825,178.3,21,,,,
2019/1/2 3:30,81491,0.812,240.7,21,,,,
2019/1/2 3:40,81492,0.681,213.4,21,,,,
2019/1/2 3:50,81493,0.708,176.3,21,,,,
2019/1/2 4:00,81494,0.413,179.7,11,,,,
2019/1/2 4:10,81495,0.785,52.33,1,,,,
2019/1/2 4:20,81496,1.158,285.9,1,,,,
2019/1/2 4:30,81497,0.651,192.2,11,,,,
2019/1/2 4:40,81498,1.481,303.8,11,,,,
2019/1/2 4:50,81499,5.052,13.7,21,,,,
2019/1/2 5:00,81500,3.425,359.2,11,,,,
2019/1/2 5:10,81501,2.211,332.4,11,,,,
2019/1/2 5:20,81502,1.851,319,21,,,,
2019/1/2 5:30,81503,3.748,351.7,11,,,,
2019/1/2 5:40,81504,2.132,335.1,21,,,,
2019/1/2 5:50,81505,2.001,321.5,21,,,,
2019/1/2 6:00,81506,1.929,331.3,1,,,,
2019/1/2 6:10,81507,1.819,310.8,21,,,,
2019/1/2 6:20,81508,1.541,314.3,21,,,,
2019/1/2 6:30,81509,1.723,317,21,,,,
2019/1/2 6:40,81510,3.202,339.1,11,,,,
2019/1/2 6:50,81511,3.544,342.2,21,,,,
2019/1/2 7:00,81512,2.55,326.6,11,,,,
2019/1/2 7:10,81513,1.806,333.5,11,,,,
2019/1/2 7:20,81514,1.557,296,21,,,,
2019/1/2 7:30,81515,1.407,305.2,1,,,,
2019/1/2 7:40,81516,1.156,302.9,21,,,,
2019/1/2 7:50,81517,1.78,317,11,,,,
2019/1/2 8:00,81518,2.3,326.5,21,,,,
2019/1/2 8:10,81519,1.351,312.2,21,,,,
2019/1/2 8:20,81520,1.782,316.5,11,,,,
2019/1/2 8:30,81521,1.009,282.7,11,,,,
2019/1/2 8:40,81522,1.127,283.6,21,,,,
2019/1/2 8:50,81523,1.087,298,11,,,,
2019/1/2 9:00,81524,1.828,321.9,21,,,,
2019/1/2 9:10,81525,1.427,304.5,21,,,,
2019/1/2 9:20,81526,1.435,309,11,,,,
2019/1/2 9:30,81527,0.844,267.1,21,,,,
2019/1/2 9:40,81528,3.239,4.557,11,,,,
2019/1/2 9:50,81529,1.209,322.8,11,,,,
2019/1/2 10:00,81530,3.781,352.5,21,,,,
2019/1/2 10:10,81531,2.859,347.8,11,,,,
2019/1/2 10:20,81532,1.119,286.3,21,,,,
2019/1/2 10:30,81533,1.464,283.1,21,,,,
2019/1/2 10:40,81534,1.852,297.8,21,,,,
2019/1/2 10:50,81535,1.273,176.6,21,,,,
2019/1/2 11:00,81536,2.184,65.1,11,,,,
2019/1/2 11:10,81537,2.839,337.5,11,,,,
2019/1/2 11:20,81538,1.56,299.8,21,,,,
2019/1/2 11:30,81539,1.275,314.6,1,,,,
2019/1/2 11:40,81540,1.535,296,11,,,,
2019/1/2 11:50,81541,2.469,327.7,11,,,,
2019/1/2 12:00,81542,0.97,252,21,,,,
2019/1/2 12:10,81543,1.557,321.9,11,,,,
2019/1/2 12:20,81544,1.622,349.9,11,,,,
2019/1/2 12:30,81545,1.885,322.4,11,,,,
2019/1/2 12:40,81546,1.255,296.4,10,,,,
2019/1/2 12:50,81547,3.007,342,11,,,,
2019/1/2 13:00,81548,2.743,340.2,21,,,,
2019/1/2 13:10,81549,3.142,337.3,21,,,,
2019/1/2 13:20,81550,1.776,326.4,11,,,,
2019/1/2 13:30,81551,1.366,308.3,11,,,,
2019/1/2 13:40,81552,0.997,204.4,21,,,,
2019/1/2 13:50,81553,1.378,188.3,11,,,,
2019/1/2 14:00,81554,1.516,236.4,21,,,,
2019/1/2 14:10,81555,1.445,290.5,0,,,,
2019/1/2 14:20,81556,2.029,329.3,11,,,,
2019/1/2 14:30,81557,1.791,347,11,,,,
2019/1/2 14:40,81558,2.392,335.8,1,,,,
2019/1/2 14:50,81559,1.085,305.5,21,,,,
2019/1/2 15:00,81560,2.118,306.8,21,,,,
2019/1/2 15:10,81561,1.293,266.8,21,,,,
2019/1/2 15:20,81562,1.638,305.4,21,,,,
2019/1/2 15:30,81563,3.04,325.8,11,,,,
2019/1/2 15:40,81564,1.928,323.8,11,,,,
2019/1/2 15:50,81565,1.793,302.7,11,,,,
2019/1/2 16:00,81566,0.955,325.2,10,,,,
2019/1/2 16:10,81567,1.32,333.1,1,,,,
2019/1/2 16:20,81568,1.334,285.4,21,,,,
2019/1/2 16:30,81569,1.087,263.6,1,,,,
2019/1/2 16:40,81570,0.837,179.7,20,,,,
2019/1/2 16:50,81571,1.049,196.8,1,,,,
2019/1/2 17:00,81572,1.003,248.3,21,,,,
2019/1/2 17:10,81573,1.031,162.6,21,,,,
2019/1/2 17:20,81574,1.02,182.3,21,,,,
2019/1/2 17:30,81575,1.215,122.7,21,,,,
2019/1/2 17:40,81576,0.691,193.7,10,,,,
2019/1/2 17:50,81577,0.959,172.6,21,,,,
2019/1/2 18:00,81578,1.581,148.8,11,,,,
2019/1/2 18:10,81579,0.759,230.9,1,,,,
2019/1/2 18:20,81580,0.764,173.1,21,,,,
2019/1/2 18:30,81581,1.388,158.6,11,,,,
2019/1/2 18:40,81582,1.374,161.8,11,,,,
2019/1/2 18:50,81583,1.512,170.7,11,,,,
2019/1/2 19:00,81584,2.088,151.3,21,,,,
2019/1/2 19:10,81585,2.118,145,21,,,,
2019/1/2 19:20,81586,1.574,141.9,21,,,,
2019/1/2 19:30,81587,0.979,323.7,11,,,,
2019/1/2 19:40,81588,1.542,164,11,,,,
2019/1/2 19:50,81589,0.898,153.9,11,,,,
2019/1/2 20:00,81590,1.597,125.3,21,,,,
2019/1/2 20:10,81591,1.064,154.2,10,,,,
2019/1/2 20:20,81592,1.391,160.5,11,,,,
2019/1/2 20:30,81593,1.848,157.8,11,,,,
2019/1/2 20:40,81594,1.483,155.9,11,,,,
2019/1/2 20:50,81595,2.389,139.7,21,,,,
2019/1/2 21:00,81596,1.225,174.1,21,,,,
2019/1/2 21:10,81597,0.893,297.3,11,,,,
2019/1/2 21:20,81598,0.918,191.3,11,,,,
2019/1/2 21:30,81599,1.003,219.8,11,,,,
2019/1/2 21:40,81600,1.062,182.8,21,,,,
2019/1/2 21:50,81601,0.882,192.1,0,,,,
2019/1/2 22:00,81602,1.357,175.4,21,,,,
2019/1/2 22:10,81603,1.44,159.1,21,,,,
2019/1/2 22:20,81604,2.128,151.8,21,,,,
2019/1/2 22:30,81605,1.653,151.9,21,,,,
2019/1/2 22:40,81606,1.323,141.1,21,,,,
2019/1/2 22:50,81607,0.926,138.2,21,,,,
2019/1/2 23:00,81608,1.198,144,21,,,,
2019/1/2 23:10,81609,0.858,178.9,21,,,,
2019/1/2 23:20,81610,1.083,205.1,21,,,,
2019/1/2 23:30,81611,0.872,157.3,11,,,,
2019/1/2 23:40,81612,0.914,128.8,11,,,,
2019/1/2 23:50,81613,1.098,153.2,10,,,,
2019/1/3 0:00,81614,1.155,135.6,11,,,,
2019/1/3 0:10,81615,1.138,140.5,1,,,,
2019/1/3 0:20,81616,0.987,151.4,11,,,,
2019/1/3 0:30,81617,1.539,156.6,21,,,,
2019/1/3 0:40,81618,1.243,156.9,11,,,,
2019/1/3 0:50,81619,0.959,163.6,11,,,,
2019/1/3 1:00,81620,0.809,176.2,11,,,,
2019/1/3 1:10,81621,1.584,154.6,1000021,,,,
2019/1/3 1:20,81622,1.412,123.7,11,,,,
2019/1/3 1:30,81623,1.087,144.5,21,,,,
2019/1/3 1:40,81624,1,326.3,11,,,,
2019/1/3 1:50,81625,1.522,315.9,11,,,,
2019/1/3 2:00,81626,1.407,238.3,1,,,,
2019/1/3 2:10,81627,1.029,165.1,11,,,,
2019/1/3 2:20,81628,1.18,318.3,21,,,,
2019/1/3 2:30,81629,1.261,304.8,11,,,,
2019/1/3 2:40,81630,1.737,316,21,,,,
2019/1/3 2:50,81631,1.878,323.9,11,,,,
2019/1/3 3:00,81632,1.426,307.4,21,,,,
2019/1/3 3:10,81633,1.273,296.9,1,,,,
2019/1/3 3:20,81634,0.986,309.1,21,,,,
2019/1/3 3:30,81635,1.352,312.1,11,,,,
2019/1/3 3:40,81636,1.749,314.3,21,,,,
2019/1/3 3:50,81637,1.09,296.7,11,,,,
2019/1/3 4:00,81638,0.451,112.4,20,,,,
2019/1/3 4:10,81639,0.836,1.284,11,,,,
2019/1/3 4:20,81640,1.536,344.4,21,,,,
2019/1/3 4:30,81641,1.264,223,11,,,,
2019/1/3 4:40,81642,1.069,301.3,21,,,,
2019/1/3 4:50,81643,1.306,320.7,21,,,,
2019/1/3 5:00,81644,2.043,338.2,11,,,,
2019/1/3 5:10,81645,0.938,304,21,,,,
2019/1/3 5:20,81646,1.58,322.3,21,,,,
2019/1/3 5:30,81647,1.674,333.2,21,,,,
2019/1/3 5:40,81648,3.808,353.7,11,,,,
2019/1/3 5:50,81649,1.978,342.8,21,,,,
2019/1/3 6:00,81650,1.637,313.2,1,,,,
2019/1/3 6:10,81651,2.76,341.3,11,,,,
2019-01-03 06:10:030:00,47197,1.614,162.8,21,,,,
2019-01-03 06:10:07-26 03:20:00,6846,0.477,336.7,20,,,,
2019/1/3 6:20,81652,3.187,345.4,1,,,,
2019/1/3 6:30,81653,1.338,252.5,21,,,,
2019/1/3 6:40,81654,1.028,239.6,1,,,,
2019/1/3 6:50,81655,0.981,239.3,21,,,,
2019/1/3 7:00,81656,0.818,254.8,1,,,,
2019/1/3 7:10,81657,1.218,296.4,21,,,,
2019/1/3 7:20,81658,1.075,246.9,1,,,,
2019/1/3 7:30,81659,1.163,279.5,21,,,,
2019/1/3 7:40,81660,1.953,335.2,21,,,,
2019/1/3 7:50,81661,1.545,296.6,11,,,,
2019/1/3 8:00,81662,1.399,254.4,21,,,,
2019/1/3 8:10,81663,3.322,348.2,11,,,,
2019/1/3 8:20,81664,1.785,267.8,1,,,,
2019/1/3 8:30,81665,1.82,319.5,11,,,,
2019/1/3 8:40,81666,2.861,2.222,11,,,,
2019/1/3 8:50,81667,2.73,14.2,21,,,,
2019/1/3 9:00,81668,2.944,317.5,21,,,,
2019/1/3 9:10,81669,1.363,236,21,,,,
2019/1/3 9:20,81670,1.01,248.9,20,,,,
2019/1/3 9:30,81671,1.708,124.1,21,,,,
2019/1/3 9:40,81672,3.061,351.7,21,,,,
2019/1/3 9:50,81673,1.454,307,1,,,,
2019/1/3 10:00,81674,1.524,284.2,21,,,,
2019/1/3 10:10,81675,3.919,348.1,11,,,,
2019/1/3 10:20,81676,2.581,340.3,21,,,,
2019/1/3 10:30,81677,2.528,312.5,21,,,,
2019/1/3 10:40,81678,2.58,351.4,11,,,,
2019/1/3 10:50,81679,1.822,295.6,11,,,,
2019/1/3 11:00,81680,2.254,287.4,1,,,,
2019/1/3 11:10,81681,1.778,306,1,,,,
2019/1/3 11:20,81682,1.434,271.3,1,,,,
2019/1/3 11:30,81683,3.696,346.4,21,,,,
2019/1/3 11:40,81684,2.245,306.9,21,,,,
2019/1/3 11:50,81685,3.241,356.4,1,,,,
2019/1/3 12:00,81686,3.754,339.5,11,,,,
2019/1/3 12:10,81687,4.342,8.81,11,,,,
2019/1/3 12:20,81688,3.781,340.9,11,,,,
2019/1/3 12:30,81689,5.649,9.98,11,,,,
2019/1/3 12:40,81690,4.552,347,11,,,,
2019/1/3 12:50,81691,4.714,7.818,21,,,,
2019/1/3 13:00,81692,5.023,355.7,11,,,,
2019/1/3 13:10,81693,5.279,8.15,21,,,,
2019/1/3 13:20,81694,2.804,338.6,11,,,,
2019/1/3 13:30,81695,4.79,358.9,11,,,,
2019/1/3 13:40,81696,3.093,346.9,11,,,,
2019/1/3 13:50,81697,1.754,318.5,11,,,,
2019/1/3 14:00,81698,2.284,323.1,11,,,,
2019/1/3 14:10,81699,4.101,351,11,,,,
2019/1/3 14:20,81700,2.206,331.3,11,,,,
2019/1/3 14:30,81701,1.635,272.3,11,,,,
2019/1/3 14:40,81702,2.354,311.1,11,,,,
2019/1/3 14:50,81703,3.868,348.1,21,,,,
2019/1/3 15:00,81704,1.32,238.6,21,,,,
2019/1/3 15:00,81704,1.32,238.6,0.4,,,,
2019/1/3 15:10,81705,1.946,311.9,1,,,,
2019/1/3 15:20,81706,2.751,310.8,11,,,,
2019/1/3 15:30,81707,1.476,286.4,1,,,,
2019/1/3 15:40,81708,1.588,221.8,21,,,,
2019/1/3 15:50,81709,1.196,210.2,21,,,,
2019/1/3 16:00,81710,1.478,256.4,11,,,,
2019/1/3 16:10,81711,1.633,308.3,1,,,,
2019/1/3 16:20,81712,1.285,273.6,21,,,,
2019/1/3 16:30,81713,1.338,252.3,1,,,,
2019/1/3 16:40,81714,1.752,284.8,21,,,,
2019/1/3 16:50,81715,4.41,350.6,11,,,,
2019-01-03 17-02 22:00:00,47278,2.293,234.5,20,,,,
2019/1/3 17:00,81716,2.226,342.7,11,,,,
2019/1/3 17:10,81717,1.177,169.2,21,,,,
2019/1/3 17:20,81718,1.044,253.5,1,,,,
2019/1/3 17:30,81719,0.838,279,0,,,,
2019/1/3 17:40,81720,0.486,174.1,1,,,,
2019/1/3 17:50,81721,0.464,208.2,0,,,,
2019/1/3 18:00,81722,0.654,236.7,11,,,,
2019/1/3 18:10,81723,1.239,304.7,21,,,,
2019/1/3 18:20,81724,0.968,211.3,0,,,,
2019/1/3 18:30,81725,1.357,234.4,11,,,,
2019/1/3 18:40,81726,1.205,225.1,1,,,,
2019/1/3 18:50,81727,0.923,232.7,1,,,,
2019/1/3 19:00,81728,1.054,263.2,21,,,,
2019/1/3 19:10,81729,1.247,246.2,11,,,,
2019/1/3 19:20,81730,0.962,187.1,1,,,,
2019/1/3 19:30,81731,1.198,230,1,,,,
2019/1/3 19:40,81732,1.183,200,11,,,,
2019/1/3 19:50,81733,1.36,194.5,1,,,,
2019/1/3 20:00,81734,1.201,197,11,,,,
2019/1/3 20:10,81735,1.074,210,21,,,,
2019/1/3 20:20,81736,0.901,184.2,11,,,,
2019/1/3 20:30,81737,1.055,125.9,11,,,,
2019/1/3 20:40,81738,0.745,176.1,10,,,,
2019/1/3 20:50,81739,1.423,178.7,1,,,,
2019/1/3 21:00,81740,0.885,147.8,1,,,,
2019/1/3 21:10,81741,0.84,167.8,21,,,,
2019/1/3 21:20,81742,1.106,150.1,20,,,,
2019/1/3 21:30,81743,1.274,244.1,21,,,,
2019/1/3 21:40,81744,1.244,173.5,11,,,,
2019/1/3 21:50,81745,1.451,185.4,11,,,,
2019/1/3 22:00,81746,1.277,200.4,1,,,,
2019/1/3 22:10,81747,1.102,194.6,11,,,,
2019/1/3 22:20,81748,1.226,206.6,11,,,,
2019/1/3 22:30,81749,1.226,176.1,11,,,,
2019/1/3 22:40,81750,1.017,179,1,,,,
2019/1/3 22:50,81751,1.269,260.9,11,,,,
2019/1/3 23:00,81752,1.042,194.9,11,,,,
2019/1/3 23:10,81753,0.99,231.3,1,,,,
2019/1/3 23:20,81754,0.846,225.4,11,,,,
2019/1/3 23:30,81755,1.475,250.9,21,,,,
2019/1/3 23:40,81756,0.928,178.3,1,,,,
2019/1/3 23:50,81757,1.414,182.8,1,,,,
2019/1/4 0:00,81758,1.094,196.3,11,,,,
2019/1/4 0:10,81759,0.817,137.9,11,,,,
2019/1/4 0:20,81760,1.132,172.2,21,,,,
2019/1/4 0:30,81761,1.272,186.6,11,,,,
2019/1/4 0:40,81762,1,218.2,21,,,,
2019/1/4 0:50,81763,0.962,233,21,,,,
2019/1/4 1:00,81764,0.945,226.3,1,,,,
2019/1/4 1:10,81765,1.077,248.5,21,,,,
2019/1/4 1:20,81766,1.019,250.1,21,,,,
2019/1/4 1:30,81767,1.264,269.4,21,,,,
2019/1/4 1:40,81768,1.121,185.5,21,,,,
2019/1/4 1:50,81769,1.076,220.5,1,,,,
2019/1/4 2:00,81770,0.794,211.3,1,,,,
2019/1/4 2:10,81771,1.068,178,11,,,,
2019/1/4 2:20,81772,1.051,201.6,21,,,,
2019/1/4 2:30,81773,0.999,215.3,11,,,,
2019/1/4 2:40,81774,1.14,213.2,11,,,,
2019/1/4 2:50,81775,1.236,207.7,21,,,,
2019/1/4 3:00,81776,1.182,206.9,1,,,,
2019/1/4 3:10,81777,0.947,199.3,21,,,,
2019/1/4 3:20,81778,1.166,171.6,21,,,,
2019/1/4 3:30,81779,1.305,153.1,11,,,,
2019/1/4 3:40,81780,1.74,161.2,1,,,,
2019/1/4 3:50,81781,1.463,167.5,21,,,,
2019/1/4 4:00,81782,1.204,180.6,1,,,,
2019/1/4 4:10,81783,1.037,203.6,21,,,,
2019/1/4 4:20,81784,1.434,167.6,21,,,,
2019/1/4 4:30,81785,1.634,137.4,1,,,,
2019/1/4 4:40,81786,1.28,241.6,1,,,,
2019/1/4 4:50,81787,1.489,169.8,11,,,,
2019/1/4 5:00,81788,0.988,182.8,11,,,,
2019/1/4 5:10,81789,1.088,161.1,21,,,,
2019/1/4 5:20,81790,1.079,161.7,11,,,,
2019/1/4 5:30,81791,1.565,170.4,11,,,,
2019/1/4 5:40,81792,1.07,252.6,1,,,,
2019/1/4 5:50,81793,1.17,196,1,,,,
2019/1/4 6:00,81794,1.261,210.4,11,,,,
2019/1/4 6:10,81795,1.043,177.1,21,,,,
2019/1/4 6:20,81796,0.912,171.4,21,,,,
2019/1/4 6:30,81797,1.096,160.1,1,,,,
2019/1/4 6:40,81798,0.72,133,11,,,,
2019/1/4 6:50,81799,0.918,153.4,11,,,,
2019/1/4 7:00,81800,1.136,171.5,1,,,,
2019/1/4 7:10,81801,1.404,154.1,21,,,,
2019/1/4 7:20,81802,1.15,150.5,1,,,,
2019/1/4 7:30,81803,0.861,141.5,21,,,,
2019/1/4 7:40,81804,1.124,167.7,21,,,,
2019/1/4 7:50,81805,0.894,182,1,,,,
2019/1/4 8:00,81806,0.782,138.7,20,,,,
2019/1/4 8:10,81807,1.335,153.2,1,,,,
2019/1/4 8:20,81808,0.997,321,10,,,,
2019/1/4 8:30,81809,2.629,5.336,10,,,,
2019/1/4 8:40,81810,1.181,319.3,11,,,,
2019/1/4 8:50,81811,1.03,142.2,21,,,,
2019/1/4 9:00,81812,1.767,144.7,21,,,,
2019/1/4 9:10,81813,1.449,191,20,,,,
2019/1/4 9:20,81814,0.929,272.7,11,,,,
2019/1/4 9:30,81815,0.711,245.1,21,,,,
2019/1/4 9:40,81816,0.884,321.7,21,,,,
2019/1/4 9:50,81817,3.901,1.79,10,,,,
2019/1/4 10:00,81818,1.697,298.7,21,,,,
2019/1/4 10:10,81819,3.048,357.3,11,,,,
2019/1/4 10:20,81820,2.058,331.9,20,,,,
2019/1/4 10:30,81821,2.169,332.4,10,,,,
2019/1/4 10:40,81822,3.114,325.5,11,,,,
2019/1/4 10:50,81823,1.924,330.7,21,,,,
2019/1/4 11:00,81824,2.502,338.1,11,,,,
2019/1/4 11:10,81825,1.293,315.8,21,,,,
2019/1/4 11:20,81826,3.774,356,21,,,,
2019/1/4 11:30,81827,1.955,319.3,21,,,,
2019/1/4 11:40,81828,3.204,344.9,11,,,,
2019/1/4 11:50,81829,1.469,312.7,11,,,,
2019/1/4 12:00,81830,3.132,348.3,11,,,,
2019/1/4 12:10,81831,3.65,357.8,21,,,,
2019/1/4 12:20,81832,1.446,291.8,21,,,,
2019/1/4 12:30,81833,1.874,325.5,11,,,,
2019/1/4 12:40,81834,2.462,335,1,,,,
2019/1/4 12:50,81835,0.901,315.2,11,,,,
2019/1/4 13:00,81836,1.839,327.6,11,,,,
2019/1/4 13:10,81837,1.188,344.8,11,,,,
2019/1/4 13:20,81838,2.164,347.9,21,,,,
2019/1/4 13:30,81839,2.642,326,11,,,,
2019/1/4 13:40,81840,3.199,346.1,11,,,,
2019/1/4 13:50,81841,2.211,336,11,,,,
2019/1/4 14:00,81842,1.877,341.7,11,,,,
2019/1/4 14:10,81843,2.484,355.1,1,,,,
2019/1/4 14:20,81844,1.026,300,1,,,,
2019/1/4 14:30,81845,1.141,324.2,11,,,,
2019/1/4 14:40,81846,1.626,340.6,11,,,,
2019/1/4 14:50,81847,0.915,303.4,21,,,,
2019/1/4 15:00,81848,1.4,163.5,21,,,,
2019/1/4 15:10,81849,1.696,344.9,11,,,,
2019/1/4 15:20,81850,2.191,330,21,,,,
2019/1/4 15:30,81851,1.373,309.5,21,,,,
2019/1/4 15:40,81852,1.779,327.8,1,,,,
2019/1/4 15:50,81853,0.611,239.1,21,,,,
2019/1/4 16:00,81854,0.911,320.2,11,,,,
2019/1/4 16:10,81855,2.717,336.3,1,,,,
2019/1/4 16:20,81856,1.4,323.6,1,,,,
2019/1/4 16:30,81857,0.873,285.6,11,,,,
2019/1/4 16:40,81858,1.485,300.6,1,,,,
2019/1/4 16:50,81859,0.634,193.8,11,,,,
2019/1/4 17:00,81860,1.063,138.1,20,,,,
2019/1/4 17:10,81861,0.599,120.4,20,,,,
2019/1/4 17:20,81862,0.942,132.3,11,,,,
2019/1/4 17:30,81863,0.959,137.9,20,,,,
2019/1/4 17:40,81864,0.491,100.4,0,,,,
2019/1/4 17:50,81865,0.489,291.6,20,,,,
2019/1/4 18:00,81866,0.457,258.1,0,,,,
2019/1/4 18:10,81867,0.478,170.4,0,,,,
2019/1/4 18:20,81868,0.432,184,20,,,,
2019/1/4 18:30,81869,1.282,135.8,21,,,,
2019/1/4 18:40,81870,1.632,134.3,21,,,,
2019/1/4 18:50,81871,2.055,134.5,21,,,,
2019/1/4 19:00,81872,1.552,125.3,21,,,,
2019/1/4 19:10,81873,1.177,137.6,21,,,,
2019/1/4 19:20,81874,0.786,136.5,0,,,,
2019/1/4 19:30,81875,0.67,152.9,20,,,,
2019/1/4 19:40,81876,1.429,128.9,21,,,,
2019/1/4 19:50,81877,1.66,128.4,11,,,,
2019/1/4 20:00,81878,1.742,130,21,,,,
2019/1/4 20:10,81879,1.116,120.6,21,,,,
2019/1/4 20:20,81880,0.925,315.6,21,,,,
2019/1/4 20:30,81881,0.982,172.9,21,,,,
2019/1/4 20:40,81882,2.279,138.4,21,,,,
2019/1/4 20:50,81883,2.245,132.4,21,,,,
2019/1/4 21:00,81884,1.734,133.8,21,,,,
2019/1/4 21:10,81885,1.485,125.7,21,,,,
2019/1/4 21:20,81886,1.337,124.6,21,,,,
2019/1/4 21:30,81887,1.362,135.6,21,,,,
2019/1/4 21:40,81888,1.57,134.8,21,,,,
2019/1/4 21:50,81889,1.367,134.4,11,,,,
2019/1/4 22:00,81890,1.389,138.4,21,,,,
2019/1/4 22:10,81891,1.761,137.6,21,,,,
2019/1/4 22:20,81892,1.312,138.3,21,,,,
2019/1/4 22:30,81893,1.441,140.1,1,,,,
2019/1/4 22:40,81894,1.309,153,0,,,,
2019/1/4 22:50,81895,1.291,121.8,21,,,,
2019/1/4 23:00,81896,1.604,135.4,21,,,,
2019/1/4 23:10,81897,1.939,139.6,11,,,,
2019/1/4 23:20,81898,1.166,143,1,,,,
2019/1/4 23:30,81899,1.068,151.7,11,,,,
2019/1/4 23:40,81900,1.65,130.9,21,,,,
2019/1/4 23:50,81901,1.076,48.98,21,,,,
2019/1/5 0:00,81902,1.444,162.7,1,,,,
2019/1/5 0:10,81903,0.664,0.612,10,,,,
2019/1/5 0:20,81904,0.766,51.01,20,,,,
2019/1/5 0:30,81905,1.198,141.8,11,,,,
2019/1/5 0:40,81906,1.631,142.6,21,,,,
2019/1/5 0:50,81907,1.946,144.6,11,,,,
2019/1/5 1:00,81908,2.219,140.2,21,,,,
2019/1/5 1:10,81909,2.214,145.9,11,,,,
2019/1/5 1:20,81910,2.317,142.9,21,,,,
2019/1/5 1:30,81911,2.652,140.7,21,,,,
2019/1/5 1:40,81912,2.252,141.5,11,,,,
2019/1/5 1:50,81913,2.409,145.8,21,,,,
2019/1/5 2:00,81914,1.397,150.5,21,,,,
2019/1/5 2:10,81915,2.571,145.4,21,,,,
2019/1/5 2:20,81916,4.011,130.7,21,,,,
2019/1/5 2:30,81917,3.841,133.7,21,,,,